www.pogodaiklimat.ru
Время
(UTC), дата
15 12.10
18 12.10
21 12.10
00 13.10
03 13.10
06 13.10
09 13.10
12 13.10
15 13.10
18 13.10
21 13.10
00 14.10
03 14.10
06 14.10
09 14.10
12 14.10
15 14.10
18 14.10
21 14.10
00 15.10
03 15.10
06 15.10
09 15.10
12 15.10
15 15.10
18 15.10
21 15.10
00 16.10
03 16.10
06 16.10
09 16.10
12 16.10
15 16.10
18 16.10
21 16.10
00 17.10
03 17.10
06 17.10
09 17.10
12 17.10
15 17.10
18 17.10
21 17.10
00 18.10
03 18.10
06 18.10
09 18.10
12 18.10
15 18.10
18 18.10
21 18.10
00 19.10
03 19.10
06 19.10
09 19.10
12 19.10
Ветер
(напр.,м/с)
Видим. Явления Облачность Т
(С)
Тd
(С)
f
(%)
Тe
(С)
Тes
(С)
Комфортность P
(гПа)
Po
(гПа)
Тmin
(С)
Tmax
(С)
R
(мм)
R24
(мм)
S
(см)
ЮЗ 1 н/о ясно -6.0 -10.6 70 -8 -8 очень
холодно
1040.5 985.5
ЮЗ 1 н/о ясно -8.0 -11.1 78 -10 -10 очень
холодно
1040.4 985.1
ЮЗ 2 н/о ясно -6.2 -8.2 86 -11 -11 очень
холодно
1039.2 984.3
З 1 50 км ясно -8.9 -11.1 84 -11 -11 очень
холодно
1040.0 984.4 -9.3
ЮВ 4 50 км ясно +1.3 -8.1 50 -3 -1 прохладно 1038.0 984.6
ЮВ 5 50 км ясно +3.5 -7.1 46 -1 +1 по сезону 1036.2 983.3
Ю 3 50 км ясно +5.1 -8.6 36 +3 +3 по сезону 1034.7 982.1
ЮЗ 1 н/о ясно -0.4 -7.6 58 -2 -2 по сезону 1035.6 982.0 +5.3
штиль 0 н/о ясно -4.3 -8.6 72 -5 -5 холодно 1036.2 981.8
Ю 2 н/о ясно -4.3 -7.3 80 -8 -8 очень
холодно
1035.6 981.2
Ю 2 н/о ясно -2.8 -4.6 87 -7 -7 холодно 1034.2 980.2
ЮЗ 1 50 км ясно -4.2 -5.3 92 -7 -7 холодно 1034.4 980.1 -5.6
Ю 1 50 км ясно +3.4 -2.1 67 +2 +5 по сезону 1032.8 980.1
ЮВ 6 50 км 6/0
[Cs]
+5.6 +0.1 68 +1 +2 по сезону 1030.3 978.1
ЮВ 5 50 км 4/0
[Cs]
+8.0 -1.2 52 +5 +5 тепло 1028.3 976.6
Ю 1 н/о 3/0
[Ci fib]
+4.5 -0.5 70 +3 +3 по сезону 1028.1 975.8 +8.0
Ю 1 н/о 6/0
[Ac trans Ci fib]
+0.5 -4.0 72 -1 -1 по сезону 1028.2 975.2
штиль 0 н/о ясно -0.5 -4.6 74 -1 -1 по сезону 1027.1 974.0
З 1 н/о ясно -3.2 -6.0 81 -5 -5 холодно 1026.6 973.0
З 1 50 км 4/0
[Ci fib]
-3.4 -5.6 85 -6 -6 холодно 1026.5 972.8 -3.9
ЮВ 2 50 км 8/0
[Cs]
+7.8 -2.9 47 +6 +9 тепло 1023.7 972.2
В 4 50 км 6/0
[Cs]
+9.7 +0.1 51 +7 +10 тепло 1021.7 970.7
В 3 50 км 8/0
[Cs]
+10.0 +2.9 61 +8 +9 тепло 1020.0 969.2
Ю 1 н/о 6/0
[Cs]
+3.8 -2.9 62 +3 +3 по сезону 1021.3 969.2 +10.4
З 1 н/о 4/0
[Cs]
-0.7 -4.8 74 -3 -3 прохладно 1021.9 969.0
З 2 н/о 3/0
[Ci fib]
-2.7 -5.6 80 -7 -7 холодно 1021.5 968.2
ЮЗ 1 н/о 3/0
[Ci fib]
-3.6 -5.5 87 -6 -6 холодно 1020.8 967.3
З 1 50 км 3/0
[Ci fib]
-4.4 -5.8 90 -7 -7 холодно 1020.6 967.0 -4.6
В 3 20 км 3/0
[Cs]
+5.0 +1.9 80 +2 +4 по сезону 1018.1 966.4
В 4 50 км 4/0
[Cs]
+10.3 +0.6 51 +8 +10 тепло 1015.3 964.7
В 2 50 км 8/0
[Ac lent Cs]
+9.6 +3.6 66 +8 +9 тепло 1014.7 964.1
ЮЗ 1 н/о 8/0
[Ac lent Cs]
+4.1 -1.2 68 +3 +3 по сезону 1016.3 964.6 +10.8
З 2 н/о 8/0
[Cs]
+0.7 -2.9 77 -3 -3 прохладно 1017.1 964.7
штиль 0 н/о 6/0
[Cs]
-1.7 -3.6 87 -3 -3 прохладно 1016.9 964.1
З 2 н/о 10/0
[Cs]
-2.4 -3.6 91 -6 -6 холодно 1016.0 963.1
ЮВ 2 50 км 6/3 600 м
[Sc Cs]
-1.4 -2.7 91 -5 -5 холодно 1014.9 962.2 -3.3
В 5 50 км 8/0
[Cs]
+6.7 +2.7 76 +3 +4 по сезону 1011.4 960.4
ЮВ 4 50 км 10/3 600 м
[Sc Ac trans Cs]
+11.1 +0.9 49 +9 +10 тепло 1008.5 958.4
ЮВ 1 50 км 10/4 600 м
[Cb cap Ac trans Ci fib]
+9.6 +4.4 70 +9 +9 тепло 1007.5 957.2
Ю 1 н/о 6/0
[Ac trans Ci fib]
+5.2 +0.2 70 +4 +4 по сезону 1008.3 957.2 +13.2
З 2 н/о 8/0
[Cs]
+1.3 -1.5 82 -2 -2 по сезону 1009.1 957.2
штиль 0 н/о 10/0
[Cs]
-0.5 -1.8 91 -2 -2 по сезону 1007.6 955.5
ЮВ 2 н/о 10/3 600 м
[Sc Ac trans Cs]
+3.0 +2.3 95 -0 -0 по сезону 1004.5 953.2
З 2 20 км 10/4 600 м
[Sc Ac lent Ci fib]
+1.9 +0.3 89 -1 -1 по сезону 1004.6 953.1 -0.7
СЗ 6-10
{12}
50 км 9/3 600 м
[Sc Cs]
+7.6 -0.0 59 +4 +4 по сезону 1007.5 956.8
СЗ 7-10
{15}
50 км 10/6 600 м
[Cb cap Ac As]
+5.8 -0.3 65 +1 +1 по сезону 1013.2 961.9
СЗ 3
{14}
50 км 10/5 600 м
[Cb cap Ac As]
+5.3 -1.6 61 +2 +2 по сезону 1016.9 965.3
З 1 н/о 10/6 600 м
[Cb cap Ac As]
+3.0 -1.4 73 +2 +2 по сезону 1019.9 967.8 +8.3
штиль 0 н/о 10/6 600 м
[Cb cap Ac trans Cs]
+1.0 -1.4 84 -0 -0 по сезону 1021.6 969.1
З 2 н/о 10/6 600 м
[Cb cap Ac trans Cs]
+1.3 -1.2 83 -2 -2 по сезону 1021.9 969.4
З 3 н/о 10/6 600 м
[Cb cap Ac trans Cs]
-0.5 -2.4 87 -5 -5 холодно 1022.0 969.1
З 1 50 км 10/3 600 м
[Sc Ac As Cs]
-0.6 -2.5 87 -3 -3 прохладно 1021.6 968.7 -0.6
З 2 50 км 10/4 600 м
[Sc diur, vesp Ac As]
+1.9 -1.0 81 -1 -1 по сезону 1021.0 968.6 -0.8
СЗ 3 50 км 10/6 600 м
[Cb cap Ac As]
+4.3 -1.1 68 +1 +1 по сезону 1019.2 967.3
ЮЗ 1 50 км 10/4 600 м
[Cb cap Ac trans Cs]
+4.8 -2.3 60 +4 +4 по сезону 1018.2 966.5
З 2 н/о {ливн. осадки} 10/3 600 м
[Sc diur, vesp Ac trans Cs]
-0.1 -2.1 86 -4 -4 прохладно 1019.9 967.2 +5.1 0.0
Местоположение метеостанции Балаганск (Иркутская область, Россия): широта 54.00 долгота 103.00 высота над уровнем моря 427 м.
В архиве по умолчанию представлена погода в Балаганске за последнюю неделю. Архивные данные за месяц целиком и за предыдущие месяцы, начиная с января 2011 года, Вы можете получить, выбрав интересующий диапазон дат из раскрывающегося списка и нажав кнопку "Найти!".
*Определитесь, кто Вы:
Внимание! Время в таблицах - всемирное. Для получения местного времени необходимо прибавить поправку, которая равна 8 ч.
Смотрите также архив погоды в соседних городах и на ближайших метеорологических станциях:
Партнеры нашего сайта:      
Пояснения к столбцам:
  • Ветер - указаны скорость ветра в м/с - средняя за 10 мин, порывы в срок и между сроками (в фигурных скобках) и направление, откуда дует ветер: С - северный,
  • СВ - северо-восточный, В - восточный, ЮВ - юго-восточный, Ю - южный, ЮЗ - юго-западный, З - западный, СЗ - северо-западный.
  • Видимость - горизонтальная дальность видимости в метрах или километрах. При видимости от 1 до 10 км при отсутствии осадков обычно наблюдается дымка, при ухудшении видимости до 1 км и менее - туман. В сухую погоду видимость может ухудшаться дымом, пылью или мглою.
  • Явления - указаны атмосферные явления, наблюдавшиеся в срок или в последний час перед сроком; фигурными скобками обозначены явления, наблюдавшиеся между сроками (за 1-3 часа до срока); квадратными скобками обозначены град или гололедные отложения с указанием их диаметра в мм.
  • Облачность - указаны через наклонную черту общая и нижняя облачность в баллах и высота нижней границы облаков в метрах; квадратными скобками обозначены формы облаков: Ci - перистые, Cs - перисто-слоистые, Cc - перисто-кучевые, Ac - высококучевые, As - высокослоистые, Sc - слоисто-кучевые, Ns - слоисто-дождевые, Cu - кучевые, Cb - кучево-дождевые. Подробнее классификацию облаков см. в Атласе облаков (PDF).
  • T - Температура воздуха - температура, измеренная на высоте 2 м над землей.
  • Td - Температура точки росы - температура, при понижении до которой содержащийся в воздухе водяной пар достигнет насыщения.
  • f - Относительная влажность воздуха - влажноcть воздуха, измеренная на высоте 2 м над землей.
  • Te - Эффективная температура - температура, которую ощущает одетый по сезону человек в тени. Характеристика душности погоды. При расчете учитывается влияние влажности воздуха и скорости ветра на теплоощущения человека.
  • Tes - Эффективная температура на солнце - температура, которую ощущает человек, с поправкой на солнечный нагрев. Характеристика знойности погоды. Зависит от высоты солнца над горизонтом, облачности и скорости ветра. Ночью, в пасмурную погоду, а также при ветре 12 м/с и более поправка равна нулю.
  • P - Атмосферное давление - приведенное к уровню моря атмосферное давление.
  • Po - Атмосферное давление - измеренное на уровне метеостанции атмосферное давление.
  • Tmin - Минимальная температура - минимум температуры воздуха на высоте 2 м над землей.
  • Tmax - Максимальная температура - максимум температуры воздуха на высоте 2 м над землей.
  • R - Количество осадков - Количество выпавших осадков за период времени, мм. При наведении курсора мыши на число - период времени, за который выпало указанное количество осадков.
  • R24 - Количество осадков - Количество выпавших осадков за 24 часа, мм.
  • S - Снежный покров - Высота снежного покрова, см. При наведении курсора мыши на число - состояние снежного покрова и степень покрытия местности в баллах.